Regional Weather Roundup
Issued by NWS

Home | Current Version | Previous Version | Text Only | Print | Product List | Glossary On
Versions: 1 2 3 4 5 6 7 8 9 10 11 12 13 14 15 16 17 18 19 20 21 22 23 24 25 26 27
000
ASUS45 KCYS 012110
RWRWY

WYOMING REGIONAL WEATHER ROUNDUP
NATIONAL WEATHER SERVICE CHEYENNE WY
300 PM MDT SUN MAY 01 2016

NOTE:  "FAIR" INDICATES FEW OR NO CLOUDS BELOW 12,000 FEET
WITH NO SIGNIFICANT WEATHER AND/OR OBSTRUCTIONS TO VISIBILITY.

WYZ001-012200-
YELLOWSTONE NATIONAL PARK

CITY           SKY/WX    TMP DP  RH WIND       PRES   REMARKS
LK YELLOWSTONE   N/A     44  13  28 E5        30.28S
W YELLOWSTONE  NOT AVBL

$$
WYZ002>013-054>058-071-098>099-012200-
NORTHERN WYOMING

CITY           SKY/WX    TMP DP  RH WIND       PRES   REMARKS
JACKSON        SUNNY     54  18  24 NE17G25   30.19F
CODY           FAIR      54  27  35 E7        30.26F
GREYBULL       FAIR      60  25  26 VRB6      30.23F
WORLAND        FAIR      54  27  35 CALM      30.25F
SHERIDAN       FAIR      57  30  35 CALM      30.26F
BUFFALO          N/A    N/A N/A N/A MISG      30.28F
GILLETTE       FAIR      54  29  38 VRB6      30.27F
HULETT         FAIR      54  28  37 E7        30.28F
NEWCASTLE      FAIR      57  21  24 S8        30.25F

$$
WYZ014>020-022>026-101>103-012200-
CENTRAL WYOMING

CITY           SKY/WX    TMP DP  RH WIND       PRES   REMARKS
BIG PINEY      FAIR      49  18  29 SE7       30.21F
PINEDALE       FAIR      48  16  27 NE8       30.22F
DUBOIS         NOT AVBL
LANDER         PTSUNNY   45  29  53 NW13      30.29F
RIVERTON       CLOUDY    46  28  49 VRB3      30.30F
CASPER         FAIR      48  25  40 NE13G21   30.27F
DOUGLAS        PTSUNNY   46  29  51 S9        30.29F

$$
WYZ021-027>030-104>119-012200-
SOUTHERN WYOMING

CITY           SKY/WX    TMP DP  RH WIND       PRES   REMARKS
EVANSTON       FAIR      44  22  41 E31G45    30.14F
KEMMERER       FAIR      43  19  39 E24G37    30.20F
FORT BRIDGER   MOCLDY    43  25  49 E23       30.22F
ROCK SPRINGS   FAIR      43  22  43 NE22G36   30.21S
DIXON          FAIR      52  22  31 E9G16     30.12F
RAWLINS        FAIR      43  23  45 NE21G29   30.23F
SARATOGA       MOCLDY    43  27  52 N13G21    30.19F
LARAMIE        CLOUDY    35  21  56 VRB5      30.24F WCI  31
CHEYENNE       PTSUNNY   38  23  55 N9        30.27F WCI  31
TORRINGTON     PTSUNNY   51  25  36 NE6       30.25F
PINE BLUFFS    FAIR      41  28  60 N9        30.27F

$$




USA.gov is the U.S. government's official web portal to all federal, state and local government web resources and services.